Change the Weather History Date:

Saturday, September 8, 2012

  Actual Average Record
Temperature  
Mean Temperature 61 °F 59 °F  
Max Temperature 81 °F 75 °F 87 °F (2005)
Min Temperature 40 °F 42 °F 30 °F (2001)
Degree Days  
Heating Degree Days 4 7  
Month to date heating degree days 31 44  
Since 1 July heating degree days 38 117  
Cooling Degree Days 0 0  
Month to date cooling degree days 0 5  
Year to date cooling degree days 419 207  
Growing Degree Days 10 (Base 50)    
Moisture  
Dew Point 36 °F    
Average Humidity 50    
Maximum Humidity 85    
Minimum Humidity 14    
Precipitation  
Precipitation 0.00 in 0.03 in 0.21 in (2006)
Month to date precipitation 0.30 0.24  
Year to date precipitation 6.61 9.16  
Sea Level Pressure  
Sea Level Pressure 30.22 in    
Wind  
Wind Speed 4 mph (NNE)    
Max Wind Speed 13 mph    
Max Gust Speed 20 mph    
Visibility 10 miles    
Events      
T = Trace of Precipitation, MM = Missing Value Source: NWS Daily Summary

Daily Weather History Graph

Daily Weather History Graph

Search for Another Location

Airport or City:

Trip Planner

Search our weather history database for the weather conditions in past years. The results will help you decide how hot, cold, wet, or windy it might be!

Date:

Astronomy

Sep. 08, 2012 Rise Set
Actual Time 6:59 AM MDT 7:49 PM MDT
Civil Twilight 6:30 AM MDT 8:18 PM MDT
Nautical Twilight 5:55 AM MDT 8:53 PM MDT
Astronomical Twilight 5:18 AM MDT 9:29 PM MDT
Moon No Moon Rise 2:58 PM MDT (9/8)
Length of Visible Light 13h 48m
Length of Day
12h 50m
Waning Gibbous, 48% of the Moon is Illuminated
Sep 8
Waning Gibbous
Sep 15
New
Sep 22
First Quarter
Sep 29
Full
Oct 8
Last Quarter

Hourly Weather History & Observations

Time (MDT) Temp. Windchill Dew Point Humidity Pressure Visibility Wind Dir Wind Speed Gust Speed Precip Events Conditions
12:53 AM 48.0 °F - 37.9 °F 68% 30.27 in 10.0 mi ENE 4.6 mph - N/A   Clear
1:53 AM 48.0 °F - 39.0 °F 71% 30.27 in 10.0 mi NE 5.8 mph - N/A   Clear
2:53 AM 46.0 °F - 37.9 °F 73% 30.27 in 10.0 mi Calm Calm - N/A   Clear
3:53 AM 43.0 °F 40.3 °F 37.9 °F 82% 30.27 in 10.0 mi NNE 4.6 mph - N/A   Clear
4:53 AM 42.1 °F 38.4 °F 37.0 °F 82% 30.28 in 10.0 mi NE 5.8 mph - N/A   Clear
5:53 AM 41.0 °F 39.0 °F 36.0 °F 82% 30.28 in 10.0 mi NE 3.5 mph - N/A   Clear
6:53 AM 39.9 °F 37.8 °F 35.1 °F 83% 30.30 in 10.0 mi ENE 3.5 mph - N/A   Clear
7:53 AM 44.1 °F 40.8 °F 35.1 °F 71% 30.30 in 10.0 mi ENE 5.8 mph - N/A   Clear
8:53 AM 48.0 °F - 36.0 °F 63% 30.31 in 10.0 mi NE 5.8 mph - N/A   Clear
9:53 AM 55.0 °F - 39.0 °F 55% 30.31 in 10.0 mi Calm Calm - N/A   Clear
10:53 AM 62.1 °F - 39.9 °F 44% 30.30 in 10.0 mi Calm Calm - N/A   Clear
11:53 AM 70.0 °F - 39.0 °F 32% 30.27 in 10.0 mi Calm Calm - N/A   Clear
12:53 PM 73.9 °F - 34.0 °F 23% 30.24 in 10.0 mi WNW 4.6 mph - N/A   Clear
1:53 PM 78.1 °F - 28.9 °F 17% 30.21 in 10.0 mi Variable 3.5 mph - N/A   Clear
2:53 PM 80.1 °F - 28.0 °F 15% 30.18 in 10.0 mi West 8.1 mph - N/A   Clear
3:53 PM 80.1 °F - 27.0 °F 14% 30.16 in 10.0 mi West 9.2 mph 19.6 mph N/A   Clear
4:53 PM 80.1 °F - 28.0 °F 15% 30.14 in 10.0 mi Variable 4.6 mph - N/A   Clear
5:53 PM 80.1 °F - 28.9 °F 15% 30.12 in 10.0 mi West 5.8 mph - N/A   Clear
6:53 PM 78.1 °F - 28.9 °F 17% 30.12 in 10.0 mi WSW 3.5 mph - N/A   Clear
7:53 PM 71.1 °F - 36.0 °F 28% 30.13 in 10.0 mi Calm Calm - N/A   Clear
8:53 PM 63.0 °F - 43.0 °F 48% 30.14 in 10.0 mi Calm Calm - N/A   Clear
9:53 PM 57.9 °F - 41.0 °F 53% 30.14 in 10.0 mi Calm Calm - N/A   Clear
10:53 PM 53.1 °F - 42.1 °F 66% 30.14 in 10.0 mi North 3.5 mph - N/A   Clear
11:53 PM 52.0 °F - 41.0 °F 66% 30.13 in 10.0 mi ENE 3.5 mph - N/A   Clear